TimeEDT,TemperatureF,Dew PointF,Humidity,Sea Level PressureIn,VisibilityMPH,Wind Direction,Wind SpeedMPH,Gust SpeedMPH,PrecipitationIn,Events,Conditions,WindDirDegrees,DateUTC
12:56 AM,72.9,72.0,97,30.34,8.0,Calm,Calm,-,N/A,,Clear,0,2013-07-16 04:56:00
1:56 AM,72.9,72.0,97,30.34,5.0,Calm,Calm,-,N/A,,Clear,0,2013-07-16 05:56:00
2:07 AM,71.6,71.6,100,30.32,1.5,Calm,Calm,-,N/A,,Clear,0,2013-07-16 06:07:00
2:32 AM,71.6,71.6,100,30.32,2.5,Calm,Calm,-,N/A,,Clear,0,2013-07-16 06:32:00
2:40 AM,71.6,71.6,100,30.32,1.0,Calm,Calm,-,N/A,,Clear,0,2013-07-16 06:40:00
2:47 AM,71.6,71.6,100,30.32,0.8,Calm,Calm,-,N/A,,Clear,0,2013-07-16 06:47:00
2:56 AM,72.0,72.0,100,30.33,1.0,Calm,Calm,-,N/A,,Clear,0,2013-07-16 06:56:00
3:03 AM,71.6,71.6,100,30.31,1.5,Calm,Calm,-,0.00,Rain,Light Rain,0,2013-07-16 07:03:00
3:05 AM,71.6,71.6,100,30.31,1.0,Calm,Calm,-,0.00,Rain,Light Rain,0,2013-07-16 07:05:00
3:08 AM,71.6,71.6,100,30.31,0.5,Calm,Calm,-,0.00,Fog-Rain,Light Rain,0,2013-07-16 07:08:00
3:17 AM,71.6,71.6,100,30.31,1.0,Calm,Calm,-,0.00,,Clear,0,2013-07-16 07:17:00
3:19 AM,71.6,71.6,100,30.31,1.5,Calm,Calm,-,0.00,,Clear,0,2013-07-16 07:19:00
3:24 AM,71.6,71.6,100,30.31,3.0,Calm,Calm,-,0.00,Rain,Light Rain,0,2013-07-16 07:24:00
3:37 AM,71.6,71.6,100,30.31,1.8,Calm,Calm,-,0.00,,Clear,0,2013-07-16 07:37:00
3:56 AM,70.9,70.9,100,30.33,1.0,Calm,Calm,-,0.00,,Clear,0,2013-07-16 07:56:00
4:03 AM,71.6,71.6,100,30.31,0.5,Calm,Calm,-,N/A,Fog,Fog,0,2013-07-16 08:03:00
4:11 AM,71.6,71.6,100,30.31,0.2,Calm,Calm,-,N/A,Fog,Fog,0,2013-07-16 08:11:00
4:24 AM,71.6,71.6,100,30.31,0.2,Calm,Calm,-,N/A,Fog,Fog,0,2013-07-16 08:24:00
4:32 AM,71.6,71.6,100,30.31,0.5,Calm,Calm,-,N/A,Fog,Fog,0,2013-07-16 08:32:00
4:36 AM,71.6,71.6,100,30.31,1.0,Calm,Calm,-,N/A,,Clear,0,2013-07-16 08:36:00
4:38 AM,71.6,71.6,100,30.31,2.0,Calm,Calm,-,N/A,,Clear,0,2013-07-16 08:38:00
4:45 AM,71.6,71.6,100,30.31,4.0,Calm,Calm,-,N/A,,Clear,0,2013-07-16 08:45:00
4:56 AM,70.9,70.9,100,30.33,1.5,Calm,Calm,-,N/A,,Clear,0,2013-07-16 08:56:00
5:03 AM,71.6,71.6,100,30.31,1.2,Calm,Calm,-,N/A,,Clear,0,2013-07-16 09:03:00
5:08 AM,69.8,69.8,100,30.32,0.8,Calm,Calm,-,N/A,,Clear,0,2013-07-16 09:08:00
5:16 AM,69.8,69.8,100,30.32,0.5,Calm,Calm,-,N/A,Fog,Fog,0,2013-07-16 09:16:00
5:36 AM,69.8,69.8,100,30.32,0.2,Calm,Calm,-,N/A,Fog,Fog,0,2013-07-16 09:36:00
5:43 AM,69.8,69.8,100,30.32,0.5,Calm,Calm,-,N/A,Fog,Fog,0,2013-07-16 09:43:00
5:56 AM,68.9,68.9,100,30.35,0.2,Calm,Calm,-,N/A,Fog,Fog,0,2013-07-16 09:56:00
6:04 AM,69.8,69.8,100,30.33,0.2,Calm,Calm,-,N/A,Fog,Fog,0,2013-07-16 10:04:00
6:35 AM,69.8,69.8,100,30.34,0.5,Calm,Calm,-,N/A,Fog,Fog,0,2013-07-16 10:35:00
6:41 AM,69.8,69.8,100,30.34,1.0,Calm,Calm,-,N/A,,Clear,0,2013-07-16 10:41:00
6:43 AM,69.8,69.8,100,30.34,1.5,Calm,Calm,-,N/A,,Clear,0,2013-07-16 10:43:00
6:47 AM,69.8,69.8,100,30.34,3.0,Calm,Calm,-,N/A,,Clear,0,2013-07-16 10:47:00
6:56 AM,70.9,70.9,100,30.36,3.0,Calm,Calm,-,N/A,,Partly Cloudy,0,2013-07-16 10:56:00
6:59 AM,71.6,71.6,100,30.34,1.8,Calm,Calm,-,N/A,,Mostly Cloudy,0,2013-07-16 10:59:00
7:24 AM,73.4,73.4,100,30.34,2.5,Calm,Calm,-,N/A,,Partly Cloudy,0,2013-07-16 11:24:00
7:31 AM,73.4,73.4,100,30.35,3.0,Calm,Calm,-,N/A,,Clear,0,2013-07-16 11:31:00
7:36 AM,73.4,73.4,100,30.35,1.2,Calm,Calm,-,N/A,,Mostly Cloudy,0,2013-07-16 11:36:00
7:38 AM,73.4,73.4,100,30.35,0.5,WSW,3.5,-,N/A,Fog,Fog,240,2013-07-16 11:38:00
7:46 AM,73.4,73.4,100,30.35,0.2,Calm,Calm,-,N/A,Fog,Fog,0,2013-07-16 11:46:00
7:56 AM,73.4,71.6,94,30.36,0.2,Calm,Calm,-,N/A,Fog,Fog,0,2013-07-16 11:56:00
8:12 AM,73.4,73.4,100,30.36,1.0,Calm,Calm,-,N/A,,Mist,0,2013-07-16 12:12:00
8:14 AM,73.4,73.4,100,30.36,1.5,Calm,Calm,-,N/A,,Mostly Cloudy,0,2013-07-16 12:14:00
8:21 AM,73.4,73.4,100,30.36,3.0,Calm,Calm,-,N/A,,Partly Cloudy,0,2013-07-16 12:21:00
8:56 AM,79.0,73.9,84,30.38,10.0,Calm,Calm,-,N/A,,Clear,0,2013-07-16 12:56:00
9:56 AM,84.9,73.9,69,30.37,10.0,Calm,Calm,-,N/A,,Clear,0,2013-07-16 13:56:00
10:56 AM,84.9,72.0,65,30.37,10.0,Calm,Calm,-,N/A,,Scattered Clouds,0,2013-07-16 14:56:00
11:56 AM,88.9,72.9,59,30.35,10.0,Calm,Calm,-,N/A,,Partly Cloudy,0,2013-07-16 15:56:00
12:56 PM,91.9,74.8,57,30.34,10.0,West,5.8,-,N/A,,Clear,260,2013-07-16 16:56:00
1:56 PM,86.9,73.9,65,30.32,10.0,Calm,Calm,-,N/A,,Partly Cloudy,0,2013-07-16 17:56:00
2:56 PM,81.9,73.9,77,30.34,10.0,North,4.6,-,0.00,Rain,Light Rain,10,2013-07-16 18:56:00
3:56 PM,77.9,74.8,90,30.34,10.0,Calm,Calm,-,0.00,,Clear,0,2013-07-16 19:56:00
4:56 PM,79.9,74.8,85,30.33,10.0,Calm,Calm,-,N/A,,Clear,0,2013-07-16 20:56:00
5:56 PM,81.0,73.9,79,30.31,10.0,Calm,Calm,-,N/A,,Clear,0,2013-07-16 21:56:00
6:56 PM,81.0,75.9,85,30.31,10.0,South,3.5,-,N/A,,Clear,190,2013-07-16 22:56:00
7:56 PM,81.0,77.0,88,30.32,10.0,Calm,Calm,-,N/A,,Clear,0,2013-07-16 23:56:00
8:56 PM,77.0,75.9,96,30.31,9.0,Calm,Calm,-,N/A,,Clear,0,2013-07-17 00:56:00
9:56 PM,75.9,75.9,100,30.32,7.0,Calm,Calm,-,N/A,,Clear,0,2013-07-17 01:56:00
10:23 PM,75.2,75.2,100,30.31,2.5,Calm,Calm,-,N/A,,Clear,0,2013-07-17 02:23:00
10:42 PM,75.2,75.2,100,30.32,1.8,Calm,Calm,-,N/A,,Mostly Cloudy,0,2013-07-17 02:42:00
10:56 PM,73.9,73.9,100,30.33,0.8,Calm,Calm,-,N/A,,Clear,0,2013-07-17 02:56:00
11:08 PM,73.4,73.4,100,30.31,1.2,Calm,Calm,-,N/A,,Clear,0,2013-07-17 03:08:00
11:19 PM,73.4,73.4,100,30.32,1.0,Calm,Calm,-,N/A,,Mostly Cloudy,0,2013-07-17 03:19:00
11:23 PM,73.4,73.4,100,30.32,1.5,Calm,Calm,-,N/A,,Mostly Cloudy,0,2013-07-17 03:23:00
11:31 PM,73.4,73.4,100,30.32,2.0,Calm,Calm,-,N/A,,Clear,0,2013-07-17 03:31:00
11:35 PM,73.4,73.4,100,30.32,1.2,Calm,Calm,-,N/A,,Clear,0,2013-07-17 03:35:00
11:39 PM,73.4,73.4,100,30.31,0.8,Calm,Calm,-,N/A,,Clear,0,2013-07-17 03:39:00
11:56 PM,73.9,73.9,100,30.34,0.2,Calm,Calm,-,N/A,Fog,Fog,0,2013-07-17 03:56:00